Regional Weather Roundup
Issued by NWS

Home | Current Version | Previous Version | Graphics & Text | Print | Product List | Glossary On
Versions: 1 2 3 4 5 6 7 8 9 10 11 12 13 14 15 16 17 18 19 20 21 22 23 24 25 26 27 28 29 30 31 32 33 34 35 36 37 38 39 40 41 42 43 44 45 46 47 48 49 50
000
ASUS43 KFSD 200702
RWRSD

WEATHER ROUNDUP FOR SOUTH DAKOTA
NATIONAL WEATHER SERVICE SIOUX FALLS SD
200 AM CDT FRI OCT 20 2017

NOTE: "FAIR" INDICATES FEW OR NO CLOUDS BELOW 12,000 FEET WITH NO
SIGNIFICANT WEATHER AND/OR OBSTRUCTIONS TO VISIBILITY.


SDZ001>005-009-010-012>017-200800-
NORTHWEST AND NORTH CENTRAL SOUTH DAKOTA

CITY           SKY/WX    TMP DP  RH WIND       PRES   REMARKS
BUFFALO          N/A     52  25  35 S10       29.52F
MOBRIDGE       CLEAR     58  47  66 SE15      29.61F
$$

SDZ012>016-024>037-041>051-057-063-072>074-200800-
SOUTHWEST AND SOUTH CENTRAL SOUTH DAKOTA

CITY           SKY/WX    TMP DP  RH WIND       PRES   REMARKS
RAPID CTY ARPT PTCLDY    56  25  30 S6        29.66F
PIERRE         CLEAR     67  47  48 S24G35    29.65F
CUSTER         CLEAR     58  19  22 S5        29.79F
ELLSWORTH AFB  PTCLDY    58  24  27 S10       29.65F
PHILIP         CLEAR     64  46  52 SW3       29.65F
PINE RIDGE     CLEAR     63  42  46 S16G26    29.72F
SPEARFISH      FAIR      55  28  35 S12       29.66F
WINNER         FAIR      67  45  45 S24G31    29.73F
$$

SDZ004>011-016>023-039-040-200800-
NORTHEAST SOUTH DAKOTA

CITY           SKY/WX    TMP DP  RH WIND       PRES   REMARKS
ABERDEEN       CLEAR     56  48  74 S10       29.72S
WATERTOWN      FAIR      53  50  89 SE10      29.79F
BROOKINGS      FAIR      56  50  80 S12       29.84S
SISSETON         N/A     67  50  54 SW22      29.71F
$$

SDZ017-020-022-023-036>040-048>070-200800-
SOUTHEAST SOUTH DAKOTA

CITY           SKY/WX    TMP DP  RH WIND       PRES   REMARKS
SIOUX FALLS    FAIR      62  51  67 S13       29.86S
HURON          CLEAR     57  49  74 S15G24    29.75F
CHAMBERLAIN    PTCLDY    67  48  50 S12G17    29.74S
MITCHELL       PTCLDY    60  50  69 S14       29.79F
YANKTON        FAIR      55  47  74 S7        29.86S
$$

ABBREVIATIONS USED IN REMARKS
   TC - TEMPERATURE IN CELSIUS
  WCI - WIND CHILL INDEX
   HX - HEAT INDEX
  VSB - VISIBILITY





USA.gov is the U.S. government's official web portal to all federal, state and local government web resources and services.